Weather in Garut

Indonesia     7°13′55″S   107°55′01″E
temp.,
°C
wind,
m/s
gust,
m/s
humid.,
%
clouds,
%
prec.,
mm/h
press.,
hPa
HPBL,
m
24 july, sat
sat2401:00+19sse139888 0.6 1014155
04:00+19sse139965 0.3 1013156
07:00+19se129772 0.4 1015160
10:00+23ese227975 0.3 1015725
13:00+26ese226248 0.6 10131272
16:00+23se337662 0.3 1012609
19:00+19sse239829 0.5 101479
22:00+18sse129378 0.0 1015288
25 july, sun
sun2501:00+17sse119115 0.0 1014102
04:00+16sse119616 0.0 101428
07:00+18sse139249 0.0 1015198
10:00+23se237039 0.0 1015779
13:00+26se325926 0.1 10121290
16:00+23se327532 0.1 1012630
19:00+18se119527 0.1 101478
22:00+17sse119816 0.0 101519
26 july, mon
mon2601:00+17s119755 0.0 101475
04:00+17ssw129670 0.0 1013118
07:00+18ssw119136 0.0 1014149
10:00+25ese22480 0.0 1014904
13:00+28e32344 0.0 10101639
16:00+27ese32420 0.0 10091136
19:00+18sse239638 0.0 101384
22:00+19se129290 0.1 1014268
27 july, tue
tue2701:00+19sse118772 0.2 1013151
04:00+16s11952 0.0 101313
07:00+18ssw11903 0.0 101576
10:00+25se225736 0.0 1014989
13:00+28ese324083 0.0 10101668
16:00+26se33526 0.0 10091065
19:00+19sse239572 0.1 1012213
22:00+19sse129374 0.1 1014195
28 july, wed
wed2801:00+18sse1292100 0.1 1012137
04:00+17sse129439 0.0 101269
07:00+18s1289100 0.0 1014130
10:00+23se2364100 0.0 1014872
13:00+26se3251100 0.0 10111301
16:00+24se326384 0.0 1010774
19:00+18sse239675 0.1 1013127
22:00+17sse129692 0.0 1015144